Theta_e
313 312 313 313 312 314 316 316 316 315 314 313 312 312 311 308 306 305 304 304 303 302 301 303 306 307 308 310 313 314 314 313 315 311 309 306 303 304 305 306 307 307 307 307
314 314 313 313 313 314 315 315 315 314 313 312 312 312 311 309 309 308 307 306 303 300 299 303 305 306 308 311 311 311 311 309 307 306 305 303 301 299 300 300 301 302 301 300
315 316 315 315 316 316 315 316 315 316 314 312 312 313 312 311 310 308 307 307 304 301 300 300 304 305 307 309 310 310 309 308 306 305 303 299 296 295 294 294 294 293 294 293
315 314 315 315 315 315 316 314 315 316 316 316 312 318 314 312 311 309 309 306 303 300 300 301 302 304 305 308 307 307 307 306 305 304 302 300 295 292 291 291 290 290 290 289
316 314 315 316 315 314 315 314 314 314 314 314 314 314 314 314 315 311 309 304 301 300 300 301 301 303 304 305 304 305 305 304 302 302 300 297 294 291 290 289 288 288 288 288
313 312 312 314 311 313 311 313 313 312 314 317 314 315 317 316 316 315 310 304 301 300 300 299 301 301 301 301 302 302 301 299 298 298 297 296 293 289 288 288 288 287 287 286
314 312 313 311 313 313 314 315 319 319 317 319 314 316 318 315 313 312 309 305 301 300 299 297 296 296 297 297 299 300 300 298 299 297 296 294 291 289 289 288 288 287 286 286
316 317 313 311 312 314 313 314 318 319 321 319 312 316 317 312 308 307 307 305 301 299 298 296 295 294 295 295 296 296 297 295 296 296 294 292 291 290 289 289 288 287 286 285
316 316 312 311 313 314 312 315 315 320 303 311 317 315 313 309 307 307 305 303 301 299 296 295 293 293 293 293 293 294 294 294 293 293 292 291 290 290 289 288 287 286 286 285
317 322 311 310 312 312 313 312 316 315 317 319 318 317 320 313 310 306 304 303 301 298 296 294 293 292 292 292 292 292 292 292 292 292 291 291 290 290 289 287 286 285 285 285
314 320 313 310 312 315 314 315 315 316 315 318 317 320 313 315 311 308 304 303 301 299 295 294 293 292 292 292 291 291 291 291 291 291 291 290 290 289 288 286 285 285 285 286
314 318 311 313 310 309 313 315 314 320 318 314 316 322 308 309 310 306 305 303 302 299 296 294 293 291 291 290 290 290 290 290 290 290 290 289 289 288 287 286 285 286 286 285
316 318 317 315 313 310 312 313 316 316 312 317 322 322 306 307 309 305 303 302 301 299 296 294 293 291 291 290 289 289 289 289 289 289 289 288 287 287 286 286 285 286 286 285
316 317 318 324 320 314 312 312 312 315 319 319 321 321 315 308 309 306 303 301 301 299 297 295 293 292 291 290 289 288 288 289 289 289 288 288 287 287 286 286 286 286 285 285
318 320 318 318 317 315 311 312 313 315 316 319 319 319 318 315 307 306 304 301 300 299 297 295 294 293 291 289 289 288 288 289 289 288 288 288 287 287 286 286 286 286 285 284
315 320 316 320 316 316 319 318 312 312 314 316 316 317 313 312 311 306 304 302 302 301 299 297 295 293 291 290 289 288 288 288 288 288 288 288 287 287 286 286 286 285 285 284
314 314 316 322 314 316 319 318 318 319 315 313 315 315 311 312 310 306 304 304 303 302 300 298 296 294 292 291 289 288 288 288 288 288 288 288 287 286 286 286 286 285 284 284
312 311 315 321 317 320 316 311 314 317 317 316 314 315 313 311 310 309 306 305 303 302 301 299 297 295 292 291 290 289 288 288 288 287 287 288 287 287 286 286 286 285 284 284
310 311 317 319 321 318 316 306 312 313 316 314 315 314 314 309 305 305 301 302 304 302 301 300 298 296 293 291 290 289 287 287 287 287 287 287 287 287 286 286 285 285 284 284
305 308 313 316 318 321 310 301 300 307 316 304 311 313 313 302 309 314 300 299 299 299 299 297 297 296 294 291 290 289 287 288 288 287 287 288 288 287 287 286 286 285 285 284
304 306 311 313 317 314 304 296 297 311 309 290 294 298 300 305 307 301 297 299 297 298 298 299 298 296 295 293 290 289 288 287 288 288 288 288 288 287 287 287 286 286 284 283
308 310 310 312 316 316 297 297 308 301 295 293 299 297 299 297 295 296 297 296 295 295 296 297 295 295 294 294 291 289 288 289 289 288 288 288 287 287 286 286 286 285 284 282
308 309 309 310 312 296 293 296 294 295 295 295 297 297 294 293 294 292 291 290 290 290 289 291 291 291 291 292 292 290 291 290 289 288 288 287 287 286 286 285 285 283 282 281
300 298 305 305 301 297 295 296 295 292 291 291 292 294 292 291 290 288 287 288 287 287 287 289 290 288 289 292 293 294 292 291 289 288 287 287 286 285 285 284 284 283 281 279
296 298 300 300 296 294 295 294 297 294 290 290 290 291 290 288 287 287 286 285 286 286 288 289 289 288 289 290 290 289 289 289 289 288 287 286 285 284 283 282 282 281 281 280
294 299 301 302 298 299 298 295 293 295 293 289 290 290 288 288 288 286 285 285 286 286 287 287 287 287 287 288 287 287 287 287 287 286 284 284 283 282 281 280 278 278 277 276
Wind_Speed
3 4 8 13 9 6 3 3 4 5 4 5 10 9 11 12 8 10 10 11 11 10 13 15 14 13 14 15 17 19 23 26 30 31 30 28 28 27 26 24 22 21 20 19
3 8 12 6 8 8 8 8 11 6 5 6 7 13 9 8 13 15 19 15 13 8 8 15 16 17 18 19 20 23 27 28 23 24 26 28 30 27 28 26 25 23 23 22
8 7 7 10 5 6 7 7 5 8 1 3 4 9 9 8 12 10 12 11 11 17 14 10 18 19 19 23 26 26 22 21 23 25 27 31 32 32 31 29 28 26 25 25
9 8 4 5 7 9 10 6 6 6 1 6 4 9 7 7 10 10 16 15 15 14 10 13 19 21 23 24 20 23 25 25 24 26 32 35 34 33 31 31 30 27 26 26
9 8 8 12 9 9 6 2 3 3 3 2 2 5 5 9 11 11 16 10 14 15 16 16 20 22 25 26 23 24 23 23 25 28 33 34 35 36 33 31 31 28 26 24
5 2 6 8 3 6 7 6 6 4 3 5 10 9 6 9 17 10 8 8 13 15 14 16 25 26 26 24 26 26 27 27 30 29 30 36 40 39 36 32 31 28 26 23
1 5 3 5 5 2 5 7 2 3 1 8 5 9 21 7 6 10 13 16 15 16 16 16 18 23 27 28 27 28 29 27 30 30 31 35 37 36 35 33 31 29 27 23
10 6 14 8 9 8 8 9 6 7 5 4 2 8 6 9 4 8 9 18 18 18 16 17 22 24 27 31 31 32 32 31 31 32 34 34 33 33 32 30 29 28 26 23
7 6 3 1 4 12 5 9 5 2 2 2 6 8 8 4 8 4 8 14 18 18 18 18 21 24 26 32 34 34 34 33 34 35 35 33 32 31 30 27 27 27 25 23
5 4 3 1 4 3 7 6 2 1 3 6 5 7 12 5 12 8 8 13 14 14 15 15 20 23 25 30 33 34 34 36 36 36 35 34 31 28 28 28 28 26 24 21
4 3 1 2 7 14 5 5 4 5 5 5 3 9 5 9 12 12 13 15 17 17 16 15 20 24 29 33 34 35 36 36 36 36 35 33 30 28 28 28 26 25 22 19
12 3 5 9 5 3 1 8 6 6 7 4 3 20 5 3 4 9 12 14 15 17 17 15 21 25 28 31 35 37 38 39 38 37 35 33 32 31 29 28 26 23 21 19
9 4 1 5 4 3 6 9 20 7 3 12 7 16 3 6 1 4 9 11 13 15 15 15 18 22 26 28 31 34 38 39 38 36 36 34 34 33 31 28 26 23 21 19
10 6 10 16 3 6 8 9 11 16 9 8 25 30 12 3 4 5 7 9 13 16 17 16 15 23 27 29 31 33 34 38 38 37 36 36 35 33 32 29 26 24 22 20
11 10 14 20 7 5 3 8 20 21 31 14 30 22 27 13 11 11 9 8 10 15 18 20 19 17 26 28 29 29 33 40 40 39 38 38 36 33 31 29 27 25 23 21
3 5 7 18 9 8 12 11 16 21 24 25 26 29 9 8 8 8 12 16 18 19 20 20 19 22 28 31 32 33 34 38 40 39 40 39 37 35 33 30 29 27 25 23
7 4 6 13 6 9 10 32 27 23 20 19 23 36 4 12 13 10 11 15 19 19 21 21 22 24 30 34 36 35 35 37 41 40 40 40 38 37 35 33 31 30 28 26
8 10 5 8 6 11 12 0 14 23 29 27 28 32 17 18 16 17 15 17 19 19 19 18 18 25 28 30 32 30 32 39 39 37 38 40 40 38 37 35 35 33 30 28
9 9 6 5 9 6 9 5 8 9 18 20 25 29 28 12 2 12 8 12 17 16 15 20 27 24 27 32 35 36 35 35 34 36 39 42 41 40 39 39 38 34 32 29
2 8 7 4 5 7 4 2 3 6 12 7 16 23 19 7 7 19 5 8 9 11 19 21 27 29 31 30 36 34 33 36 39 41 39 40 40 40 42 42 39 36 34 33
3 3 12 12 7 5 5 4 3 6 6 2 1 4 6 8 8 2 7 4 7 15 21 27 29 29 30 34 36 32 30 34 41 37 38 39 40 42 40 39 38 37 34 33
10 9 5 5 6 7 6 3 7 1 2 2 2 2 4 1 2 4 3 6 8 9 15 23 22 24 30 35 37 30 34 35 34 35 35 35 36 37 37 37 36 35 33 31
4 6 7 8 5 2 4 3 1 0 1 4 3 3 2 4 2 3 2 5 5 7 13 19 21 22 23 29 31 27 28 27 28 28 30 31 32 34 35 35 34 32 32 32
3 0 2 3 6 4 3 2 3 2 0 3 3 2 4 3 3 2 3 5 5 9 13 18 22 20 18 21 23 25 25 23 24 26 28 29 29 31 31 32 33 34 34 34
3 5 4 4 4 4 6 6 4 4 2 1 1 1 3 6 2 4 4 3 5 10 14 21 23 22 23 23 22 19 15 19 23 24 26 27 29 30 30 30 31 32 32 31
4 6 5 5 5 4 3 5 7 5 3 3 3 3 2 3 5 4 4 5 10 13 14 16 16 16 16 17 17 16 14 16 20 23 24 26 27 27 26 25 23 22 21 22
Wind_Direction
216 126 204 207 194 196 209 227 250 260 230 154 225 243 225 211 218 216 214 208 195 183 167 162 166 169 163 162 157 160 158 156 154 146 140 133 121 124 119 119 122 120 119 116
88 228 227 198 205 217 240 253 266 291 204 172 258 253 245 201 222 211 211 207 192 153 161 163 168 173 172 164 162 159 156 148 144 148 147 140 132 124 121 120 118 119 121 117
182 212 207 200 213 189 214 209 236 231 242 265 305 270 254 241 223 214 225 207 187 171 167 165 171 177 168 158 151 150 151 156 161 156 147 136 129 124 122 120 118 117 117 114
232 223 171 167 212 191 239 210 213 238 230 251 156 285 241 247 232 220 219 196 182 171 163 162 171 176 170 167 163 162 163 165 166 162 154 147 141 131 129 127 123 121 117 112
228 186 191 217 210 174 233 83 198 220 213 312 225 297 249 208 240 242 227 191 179 171 164 169 173 173 170 168 164 170 169 168 167 166 157 153 143 136 135 130 125 120 116 113
218 173 160 196 69 169 148 71 39 41 59 262 212 213 210 216 231 245 204 185 172 167 166 164 168 167 167 169 167 162 161 160 160 163 163 157 148 144 139 135 128 125 122 120
153 205 171 137 109 56 133 121 279 322 294 246 216 224 250 295 226 217 198 188 176 170 166 160 161 166 166 172 172 172 170 161 168 168 166 160 153 149 146 144 138 136 133 127
192 267 172 191 182 171 195 166 163 214 215 273 346 239 251 231 257 266 203 185 173 169 168 165 168 170 171 175 175 173 173 166 167 167 164 163 159 156 152 150 147 141 136 129
178 256 87 98 154 160 201 211 166 346 88 8 220 278 288 253 257 262 183 172 178 175 169 169 168 172 174 177 177 176 172 167 166 163 162 163 163 159 154 153 150 144 139 134
223 262 24 193 91 59 151 163 107 102 201 251 271 260 236 212 244 224 199 184 181 174 172 168 168 174 178 180 179 177 174 168 166 164 164 164 165 163 159 158 154 148 143 139
181 178 321 132 200 173 163 192 191 142 166 192 282 262 221 221 219 207 198 192 182 180 176 172 173 174 178 182 181 180 177 171 167 167 166 164 164 164 164 162 158 154 149 148
201 167 182 203 267 276 270 190 165 174 215 234 174 266 180 138 227 190 199 193 186 181 176 174 175 173 176 178 180 181 181 176 173 171 169 168 167 169 170 167 164 160 157 159
174 189 114 323 345 343 208 208 210 224 62 211 198 256 32 61 93 208 188 186 181 177 175 173 174 180 181 180 181 183 183 181 177 173 172 170 171 174 174 172 170 168 169 170
157 160 206 225 172 143 191 196 206 207 229 202 231 261 227 170 225 213 206 191 183 181 179 179 181 184 185 185 183 184 184 186 180 178 176 176 178 180 179 178 176 176 177 180
161 215 219 244 222 111 198 212 210 208 225 204 253 236 253 234 222 220 205 158 183 190 188 189 187 186 184 184 186 185 185 188 187 183 183 186 184 185 184 183 182 184 186 189
341 220 178 253 236 240 246 247 228 231 241 237 252 264 102 229 237 215 189 184 193 198 200 195 190 188 188 186 185 185 186 189 190 189 191 191 187 188 190 188 189 191 193 196
170 176 170 246 163 232 249 233 240 233 234 230 237 247 168 253 241 227 211 201 203 201 198 195 195 191 190 190 186 186 186 187 191 193 195 195 191 192 194 194 195 198 200 203
172 196 212 254 150 217 241 135 218 221 233 229 245 257 240 247 249 248 220 204 202 201 195 195 191 191 189 185 184 180 185 194 192 194 197 198 197 197 199 200 203 203 205 208
165 185 221 220 228 287 292 198 156 165 247 225 230 248 254 248 257 259 215 208 205 198 192 188 183 178 168 176 184 184 184 187 190 197 202 203 201 201 203 206 207 208 210 213
72 213 203 177 215 211 267 276 240 109 265 203 205 237 250 129 225 257 176 156 153 147 151 148 162 170 171 176 183 179 183 188 197 203 203 206 206 209 211 212 211 213 216 221
139 193 221 236 247 256 236 204 303 144 248 304 259 293 155 205 239 269 147 113 130 141 146 161 169 169 181 182 180 182 186 196 204 205 209 209 210 213 216 216 217 219 219 223
174 178 199 213 232 247 162 88 177 234 328 210 308 278 207 289 23 138 121 133 139 137 141 160 157 169 182 185 180 181 192 206 205 207 209 211 215 216 218 219 220 221 221 224
216 196 178 193 208 184 221 179 187 200 279 335 333 332 191 146 145 122 107 112 117 128 129 146 143 148 167 178 185 186 202 206 206 207 210 213 215 217 219 218 219 218 221 225
237 94 166 129 209 217 223 240 179 162 206 302 292 275 157 122 113 77 116 126 112 108 120 138 142 141 157 177 191 204 200 203 203 204 209 213 213 214 217 219 222 221 221 224
200 148 159 284 263 310 244 218 211 163 135 117 59 99 150 135 150 147 135 114 113 118 134 150 150 161 173 181 193 200 200 202 202 207 209 209 210 212 211 216 220 223 231 234
198 175 181 219 192 156 257 229 171 180 153 135 88 53 37 139 147 126 101 121 140 140 149 157 166 167 171 181 191 198 201 204 205 204 207 209 209 210 214 218 220 229 238 241